Powrót do katalogu

STARLINK-31386

AktywnyŁącznośćVLEO
NORAD 59298·PAYLOAD·🇺🇸 United States

Wystrzelony Mar 24, 2024 z Cape Canaveral Space Force Station

Loading…

Następne Przeloty (najbliższe 24 godziny)

TLE

ŚwieżeSource: CelesTrak SupGP

Epoka: Sep 15, 2026, 02:42 UTC

1 59298C 24056C   26258.11298611 -.00037009  00000+0 -13407-2 0  2587
2 59298  42.9993 240.9265 0001369 268.4940 119.4809 15.27591477    12

Śledź STARLINK-31386 w czasie rzeczywistym z AllMySat

Download on the App Store